Time,TemperatureF,DewpointF,PressureIn,WindDirection,WindDirectionDegrees,WindSpeedMPH,WindSpeedGustMPH,Humidity,HourlyPrecipIn,Conditions,Clouds,dailyrainin,SoftwareType,DateUTC
2013-03-24 00:02:00,30.6,29.3,30.05,North,11,3.0,3.0,95,0.00,,,0.00,Wunderground v.1.15,2013-03-24 05:02:00,
2013-03-24 00:08:00,30.6,29.3,30.05,North,11,2.0,4.0,95,0.00,,,0.00,Wunderground v.1.15,2013-03-24 05:08:00,
2013-03-24 00:13:00,30.5,29.2,30.05,North,11,2.0,2.0,95,0.00,,,0.00,Wunderground v.1.15,2013-03-24 05:13:00,
2013-03-24 00:19:00,30.5,29.2,30.04,North,11,0.0,2.0,95,0.00,,,0.00,Wunderground v.1.15,2013-03-24 05:19:00,
2013-03-24 00:24:00,30.5,29.2,30.04,North,5,0.0,5.0,95,0.00,,,0.00,Wunderground v.1.15,2013-03-24 05:24:00,
2013-03-24 00:29:00,30.4,29.1,30.04,North,5,0.0,5.0,95,0.00,,,0.00,Wunderground v.1.15,2013-03-24 05:29:00,
2013-03-24 00:34:00,30.4,29.1,30.04,North,5,0.0,1.0,95,0.00,,,0.00,Wunderground v.1.15,2013-03-24 05:34:00,
2013-03-24 00:40:00,30.4,29.1,30.04,North,5,1.0,1.0,95,0.00,,,0.00,Wunderground v.1.15,2013-03-24 05:40:00,
2013-03-24 00:45:00,30.4,29.1,30.03,North,5,0.0,0.0,95,0.00,,,0.00,Wunderground v.1.15,2013-03-24 05:45:00,
2013-03-24 00:52:00,30.3,29.0,30.03,North,5,0.0,0.0,95,0.00,,,0.00,Wunderground v.1.15,2013-03-24 05:52:00,
2013-03-24 00:58:00,30.3,29.0,30.03,North,5,0.0,1.0,95,0.00,,,0.00,Wunderground v.1.15,2013-03-24 05:58:00,
2013-03-24 01:03:00,30.2,28.9,30.03,North,5,0.0,0.0,95,0.00,,,0.00,Wunderground v.1.15,2013-03-24 06:03:00,
2013-03-24 01:13:00,30.1,28.8,30.03,North,5,0.0,0.0,95,0.00,,,0.00,Wunderground v.1.15,2013-03-24 06:13:00,
2013-03-24 01:19:00,30.1,28.8,30.03,North,5,0.0,1.0,95,0.00,,,0.00,Wunderground v.1.15,2013-03-24 06:19:00,
2013-03-24 01:25:00,30.0,28.7,30.03,North,5,0.0,0.0,95,0.00,,,0.00,Wunderground v.1.15,2013-03-24 06:25:00,
2013-03-24 01:32:00,29.9,28.6,30.02,North,5,0.0,0.0,95,0.00,,,0.00,Wunderground v.1.15,2013-03-24 06:32:00,
2013-03-24 01:38:00,29.9,28.6,30.02,North,5,0.0,1.0,95,0.00,,,0.00,Wunderground v.1.15,2013-03-24 06:38:00,
2013-03-24 01:43:00,29.8,28.5,30.01,North,5,0.0,0.0,95,0.00,,,0.00,Wunderground v.1.15,2013-03-24 06:43:00,
2013-03-24 01:49:00,29.8,28.5,30.01,North,5,0.0,1.0,95,0.00,,,0.00,Wunderground v.1.15,2013-03-24 06:49:00,
2013-03-24 01:54:00,29.8,28.5,30.01,North,5,0.0,0.0,95,0.00,,,0.00,Wunderground v.1.15,2013-03-24 06:54:00,
2013-03-24 01:59:00,29.7,28.4,30.01,North,5,0.0,0.0,95,0.00,,,0.00,Wunderground v.1.15,2013-03-24 06:59:00,
2013-03-24 02:04:00,29.7,28.7,30.01,North,5,0.0,0.0,96,0.00,,,0.00,Wunderground v.1.15,2013-03-24 07:04:00,
2013-03-24 02:09:00,29.7,28.7,30.01,North,5,0.0,0.0,96,0.00,,,0.00,Wunderground v.1.15,2013-03-24 07:09:00,
2013-03-24 02:14:00,29.7,28.7,30.01,North,5,0.0,0.0,96,0.00,,,0.00,Wunderground v.1.15,2013-03-24 07:14:00,
2013-03-24 02:19:00,29.7,28.7,30.01,North,5,0.0,1.0,96,0.00,,,0.00,Wunderground v.1.15,2013-03-24 07:19:00,
2013-03-24 02:24:00,29.7,28.7,30.01,North,5,0.0,1.0,96,0.00,,,0.00,Wunderground v.1.15,2013-03-24 07:24:00,
2013-03-24 02:29:00,29.7,28.7,30.01,North,5,2.0,2.0,96,0.00,,,0.00,Wunderground v.1.15,2013-03-24 07:29:00,
2013-03-24 02:34:00,29.8,28.8,30.01,North,5,2.0,3.0,96,0.00,,,0.00,Wunderground v.1.15,2013-03-24 07:34:00,
2013-03-24 02:39:00,29.8,28.8,30.01,North,5,1.0,3.0,96,0.00,,,0.00,Wunderground v.1.15,2013-03-24 07:39:00,
2013-03-24 02:44:00,29.7,28.7,30.01,North,5,1.0,2.0,96,0.00,,,0.00,Wunderground v.1.15,2013-03-24 07:44:00,
2013-03-24 02:49:00,29.7,28.7,30.01,North,5,1.0,2.0,96,0.00,,,0.00,Wunderground v.1.15,2013-03-24 07:49:00,
2013-03-24 02:54:00,29.7,28.7,30.01,North,5,1.0,3.0,96,0.00,,,0.00,Wunderground v.1.15,2013-03-24 07:54:00,
2013-03-24 02:59:00,29.7,28.7,30.00,North,5,2.0,3.0,96,0.00,,,0.00,Wunderground v.1.15,2013-03-24 07:59:00,
2013-03-24 03:04:00,29.7,28.7,30.00,North,5,3.0,4.0,96,0.00,,,0.00,Wunderground v.1.15,2013-03-24 08:04:00,
2013-03-24 03:09:00,29.8,28.8,30.00,North,5,3.0,4.0,96,0.00,,,0.00,Wunderground v.1.15,2013-03-24 08:09:00,
2013-03-24 03:14:00,29.7,28.7,30.00,North,5,3.0,3.0,96,0.00,,,0.00,Wunderground v.1.15,2013-03-24 08:14:00,
2013-03-24 03:19:00,29.8,28.8,30.00,North,5,3.0,4.0,96,0.00,,,0.00,Wunderground v.1.15,2013-03-24 08:19:00,
2013-03-24 03:24:00,29.7,28.7,30.00,North,5,0.0,2.0,96,0.00,,,0.00,Wunderground v.1.15,2013-03-24 08:24:00,
2013-03-24 03:29:00,29.8,28.8,30.00,North,5,1.0,2.0,96,0.00,,,0.00,Wunderground v.1.15,2013-03-24 08:29:00,
2013-03-24 03:34:00,29.7,28.7,30.00,North,5,3.0,3.0,96,0.00,,,0.00,Wunderground v.1.15,2013-03-24 08:34:00,
2013-03-24 03:39:00,29.7,28.7,29.99,North,5,2.0,4.0,96,0.00,,,0.00,Wunderground v.1.15,2013-03-24 08:39:00,
2013-03-24 03:44:00,29.7,28.7,29.99,North,5,2.0,4.0,96,0.00,,,0.00,Wunderground v.1.15,2013-03-24 08:44:00,
2013-03-24 03:49:00,29.8,28.8,29.99,North,5,3.0,4.0,96,0.00,,,0.00,Wunderground v.1.15,2013-03-24 08:49:00,
2013-03-24 03:54:00,29.7,28.7,29.99,North,5,4.0,4.0,96,0.00,,,0.00,Wunderground v.1.15,2013-03-24 08:54:00,
2013-03-24 03:59:00,29.7,28.7,29.98,North,5,3.0,4.0,96,0.00,,,0.00,Wunderground v.1.15,2013-03-24 08:59:00,
2013-03-24 04:04:00,29.7,28.7,29.98,North,5,4.0,4.0,96,0.00,,,0.00,Wunderground v.1.15,2013-03-24 09:04:00,
2013-03-24 04:09:00,29.7,28.7,29.97,North,5,4.0,5.0,96,0.00,,,0.00,Wunderground v.1.15,2013-03-24 09:09:00,
2013-03-24 04:14:00,29.7,28.7,29.97,North,5,2.0,5.0,96,0.00,,,0.00,Wunderground v.1.15,2013-03-24 09:14:00,
2013-03-24 04:19:00,29.7,28.7,29.97,North,5,2.0,5.0,96,0.00,,,0.00,Wunderground v.1.15,2013-03-24 09:19:00,
2013-03-24 04:25:00,29.7,28.7,29.97,North,5,4.0,5.0,96,0.00,,,0.00,Wunderground v.1.15,2013-03-24 09:25:00,
2013-03-24 04:30:00,29.7,28.7,29.96,North,5,0.0,5.0,96,0.00,,,0.00,Wunderground v.1.15,2013-03-24 09:30:00,
2013-03-24 04:35:00,29.6,28.6,29.96,North,5,0.0,2.0,96,0.00,,,0.00,Wunderground v.1.15,2013-03-24 09:35:00,
2013-03-24 04:40:00,29.5,28.5,29.96,NNE,16,0.0,4.0,96,0.00,,,0.00,Wunderground v.1.15,2013-03-24 09:40:00,
2013-03-24 04:45:00,29.4,28.4,29.96,NNE,17,0.0,2.0,96,0.00,,,0.00,Wunderground v.1.15,2013-03-24 09:45:00,
2013-03-24 04:50:00,29.2,28.2,29.96,NNE,17,0.0,2.0,96,0.00,,,0.00,Wunderground v.1.15,2013-03-24 09:50:00,
2013-03-24 04:55:00,29.3,28.3,29.96,NNE,17,0.0,1.0,96,0.00,,,0.00,Wunderground v.1.15,2013-03-24 09:55:00,
2013-03-24 05:00:00,29.3,28.3,29.96,NNE,17,0.0,1.0,96,0.00,,,0.00,Wunderground v.1.15,2013-03-24 10:00:00,
2013-03-24 05:05:00,29.2,28.2,29.96,NNE,17,2.0,2.0,96,0.00,,,0.00,Wunderground v.1.15,2013-03-24 10:05:00,
2013-03-24 05:10:00,29.1,28.1,29.95,NNE,17,2.0,3.0,96,0.00,,,0.00,Wunderground v.1.15,2013-03-24 10:10:00,
2013-03-24 05:15:00,29.0,28.0,29.95,NNE,17,2.0,2.0,96,0.00,,,0.00,Wunderground v.1.15,2013-03-24 10:15:00,
2013-03-24 05:20:00,29.0,28.0,29.95,NNE,17,1.0,2.0,96,0.00,,,0.00,Wunderground v.1.15,2013-03-24 10:20:00,
2013-03-24 05:25:00,28.9,27.9,29.95,NNE,17,0.0,1.0,96,0.00,,,0.00,Wunderground v.1.15,2013-03-24 10:25:00,
2013-03-24 05:30:00,28.8,27.8,29.95,NNE,17,2.0,2.0,96,0.00,,,0.00,Wunderground v.1.15,2013-03-24 10:30:00,
2013-03-24 05:35:00,28.7,27.7,29.95,NNE,17,1.0,2.0,96,0.00,,,0.00,Wunderground v.1.15,2013-03-24 10:35:00,
2013-03-24 05:40:00,28.7,27.7,29.95,NNE,17,1.0,2.0,96,0.00,,,0.00,Wunderground v.1.15,2013-03-24 10:40:00,
2013-03-24 05:45:00,28.7,27.7,29.95,NNE,17,0.0,1.0,96,0.00,,,0.00,Wunderground v.1.15,2013-03-24 10:45:00,
2013-03-24 05:50:00,28.7,27.7,29.95,NNE,17,0.0,1.0,96,0.00,,,0.00,Wunderground v.1.15,2013-03-24 10:50:00,
2013-03-24 05:55:00,28.7,27.7,29.94,NNE,17,0.0,2.0,96,0.00,,,0.00,Wunderground v.1.15,2013-03-24 10:55:00,
2013-03-24 06:00:00,28.7,27.7,29.95,NNE,17,0.0,0.0,96,0.00,,,0.00,Wunderground v.1.15,2013-03-24 11:00:00,
2013-03-24 06:05:00,28.7,27.7,29.95,NNE,17,0.0,0.0,96,0.00,,,0.00,Wunderground v.1.15,2013-03-24 11:05:00,
2013-03-24 06:10:00,28.7,27.7,29.95,NNE,17,0.0,0.0,96,0.00,,,0.00,Wunderground v.1.15,2013-03-24 11:10:00,
2013-03-24 06:16:00,28.7,27.7,29.95,NNE,17,0.0,0.0,96,0.00,,,0.00,Wunderground v.1.15,2013-03-24 11:16:00,
2013-03-24 06:22:00,28.8,27.8,29.96,NNE,17,1.0,1.0,96,0.00,,,0.00,Wunderground v.1.15,2013-03-24 11:22:00,
2013-03-24 06:27:00,28.8,27.8,29.96,NNE,17,0.0,2.0,96,0.00,,,0.00,Wunderground v.1.15,2013-03-24 11:27:00,
2013-03-24 06:32:00,28.8,27.8,29.96,NNE,17,0.0,0.0,96,0.00,,,0.00,Wunderground v.1.15,2013-03-24 11:32:00,
2013-03-24 06:37:00,28.7,27.7,29.95,NNE,17,1.0,3.0,96,0.00,,,0.00,Wunderground v.1.15,2013-03-24 11:37:00,
2013-03-24 06:42:00,28.7,27.7,29.95,NNE,17,0.0,1.0,96,0.00,,,0.00,Wunderground v.1.15,2013-03-24 11:42:00,
2013-03-24 06:48:00,28.6,27.6,29.94,NNE,16,5.0,5.0,96,0.00,,,0.00,Wunderground v.1.15,2013-03-24 11:48:00,
2013-03-24 06:53:00,28.5,27.5,29.94,NNE,14,3.0,4.0,96,0.00,,,0.00,Wunderground v.1.15,2013-03-24 11:53:00,
2013-03-24 06:58:00,28.5,27.5,29.95,NNE,14,7.0,8.0,96,0.00,,,0.00,Wunderground v.1.15,2013-03-24 11:58:00,
2013-03-24 07:03:00,28.4,27.4,29.95,NNE,15,3.0,5.0,96,0.00,,,0.00,Wunderground v.1.15,2013-03-24 12:03:00,
2013-03-24 07:08:00,28.4,27.4,29.94,NNE,15,1.0,5.0,96,0.00,,,0.00,Wunderground v.1.15,2013-03-24 12:08:00,
2013-03-24 07:13:00,28.3,27.3,29.94,NNE,14,4.0,6.0,96,0.00,,,0.00,Wunderground v.1.15,2013-03-24 12:13:00,
2013-03-24 07:18:00,28.2,27.2,29.94,NNE,14,7.0,10.0,96,0.00,,,0.00,Wunderground v.1.15,2013-03-24 12:18:00,
2013-03-24 07:23:00,28.2,27.2,29.93,NNE,12,5.0,8.0,96,0.00,,,0.00,Wunderground v.1.15,2013-03-24 12:23:00,
2013-03-24 07:28:00,28.1,27.1,29.94,NNE,14,0.0,8.0,96,0.00,,,0.00,Wunderground v.1.15,2013-03-24 12:28:00,
2013-03-24 07:33:00,28.1,27.1,29.93,NNE,12,4.0,5.0,96,0.00,,,0.00,Wunderground v.1.15,2013-03-24 12:33:00,
2013-03-24 07:39:00,28.1,27.1,29.93,NNE,12,1.0,5.0,96,0.00,,,0.00,Wunderground v.1.15,2013-03-24 12:39:00,
2013-03-24 07:44:00,28.2,27.2,29.93,NNE,13,4.0,4.0,96,0.00,,,0.00,Wunderground v.1.15,2013-03-24 12:44:00,
2013-03-24 07:49:00,28.3,27.3,29.93,NNE,14,6.0,10.0,96,0.00,,,0.00,Wunderground v.1.15,2013-03-24 12:49:00,
2013-03-24 07:54:00,28.3,27.3,29.93,North,9,2.0,9.0,96,0.00,,,0.00,Wunderground v.1.15,2013-03-24 12:54:00,
2013-03-24 07:59:00,28.3,27.3,29.92,North,5,3.0,9.0,96,0.00,,,0.00,Wunderground v.1.15,2013-03-24 12:59:00,
2013-03-24 08:04:00,28.3,27.3,29.91,North,10,9.0,9.0,96,0.00,,,0.00,Wunderground v.1.15,2013-03-24 13:04:00,
2013-03-24 08:09:00,28.3,27.3,29.92,North,11,3.0,8.0,96,0.00,,,0.00,Wunderground v.1.15,2013-03-24 13:09:00,
2013-03-24 08:14:00,28.4,27.4,29.92,North,9,1.0,4.0,96,0.00,,,0.00,Wunderground v.1.15,2013-03-24 13:14:00,
2013-03-24 08:19:00,28.5,27.5,29.92,North,9,0.0,4.0,96,0.00,,,0.00,Wunderground v.1.15,2013-03-24 13:19:00,
2013-03-24 08:24:00,28.5,27.5,29.92,North,11,1.0,4.0,96,0.00,,,0.00,Wunderground v.1.15,2013-03-24 13:24:00,
2013-03-24 08:29:00,28.6,27.6,29.92,North,9,5.0,6.0,96,0.00,,,0.00,Wunderground v.1.15,2013-03-24 13:29:00,
2013-03-24 08:34:00,28.7,27.7,29.91,North,5,0.0,3.0,96,0.00,,,0.00,Wunderground v.1.15,2013-03-24 13:34:00,
2013-03-24 08:39:00,28.8,27.8,29.91,NNE,13,3.0,7.0,96,0.00,,,0.00,Wunderground v.1.15,2013-03-24 13:39:00,
2013-03-24 08:44:00,28.8,27.8,29.91,NNE,13,1.0,6.0,96,0.00,,,0.00,Wunderground v.1.15,2013-03-24 13:44:00,
2013-03-24 08:49:00,28.9,27.9,29.91,North,5,1.0,7.0,96,0.00,,,0.00,Wunderground v.1.15,2013-03-24 13:49:00,
2013-03-24 08:54:00,28.9,27.6,29.90,North,5,2.0,3.0,95,0.00,,,0.00,Wunderground v.1.15,2013-03-24 13:54:00,
2013-03-24 08:59:00,28.9,27.6,29.90,North,5,1.0,4.0,95,0.00,,,0.00,Wunderground v.1.15,2013-03-24 13:59:00,
2013-03-24 09:04:00,28.8,27.5,29.90,North,9,3.0,7.0,95,0.00,,,0.00,Wunderground v.1.15,2013-03-24 14:04:00,
2013-03-24 09:09:00,28.7,27.4,29.91,North,11,5.0,5.0,95,0.00,,,0.00,Wunderground v.1.15,2013-03-24 14:09:00,
2013-03-24 09:14:00,28.6,27.4,29.91,NNE,12,5.0,10.0,95,0.00,,,0.00,Wunderground v.1.15,2013-03-24 14:14:00,
2013-03-24 09:19:00,28.7,27.4,29.91,NNE,16,3.0,10.0,95,0.00,,,0.00,Wunderground v.1.15,2013-03-24 14:19:00,
2013-03-24 09:24:00,28.7,27.4,29.91,NNE,14,6.0,9.0,95,0.00,,,0.00,Wunderground v.1.15,2013-03-24 14:24:00,
2013-03-24 09:29:00,28.8,27.5,29.91,NNE,12,5.0,9.0,95,0.00,,,0.00,Wunderground v.1.15,2013-03-24 14:29:00,
2013-03-24 09:35:00,28.8,27.3,29.91,NNE,12,11.0,11.0,94,0.00,,,0.00,Wunderground v.1.15,2013-03-24 14:35:00,
2013-03-24 09:40:00,28.7,27.2,29.91,North,11,10.0,12.0,94,0.00,,,0.00,Wunderground v.1.15,2013-03-24 14:40:00,
2013-03-24 09:45:00,28.7,27.2,29.90,NNE,16,15.0,27.0,94,0.00,,,0.00,Wunderground v.1.15,2013-03-24 14:45:00,
2013-03-24 09:50:00,28.7,27.2,29.90,NNE,13,18.0,27.0,94,0.00,,,0.00,Wunderground v.1.15,2013-03-24 14:50:00,
2013-03-24 09:55:00,28.7,27.2,29.90,North,5,11.0,27.0,94,0.00,,,0.00,Wunderground v.1.15,2013-03-24 14:55:00,
2013-03-24 10:00:00,28.7,27.2,29.90,North,9,13.0,15.0,94,0.00,,,0.01,Wunderground v.1.15,2013-03-24 15:00:00,
2013-03-24 10:05:00,28.7,26.9,29.90,North,5,13.0,15.0,93,0.00,,,0.01,Wunderground v.1.15,2013-03-24 15:05:00,
2013-03-24 10:10:00,28.7,26.9,29.90,North,5,12.0,22.0,93,0.00,,,0.01,Wunderground v.1.15,2013-03-24 15:10:00,
2013-03-24 10:15:00,28.8,27.0,29.90,North,360,11.0,15.0,93,0.00,,,0.01,Wunderground v.1.15,2013-03-24 15:15:00,
2013-03-24 10:20:00,28.9,26.9,29.90,NNE,15,16.0,16.0,92,0.00,,,0.01,Wunderground v.1.15,2013-03-24 15:20:00,
2013-03-24 10:25:00,29.0,27.0,29.90,NNE,18,14.0,15.0,92,0.00,,,0.01,Wunderground v.1.15,2013-03-24 15:25:00,
2013-03-24 10:30:00,29.0,26.7,29.90,North,5,19.0,19.0,91,0.00,,,0.01,Wunderground v.1.15,2013-03-24 15:30:00,
2013-03-24 10:35:00,29.0,26.7,29.90,NNE,12,14.0,15.0,91,0.00,,,0.01,Wunderground v.1.15,2013-03-24 15:35:00,
2013-03-24 10:40:00,29.1,26.5,29.90,North,11,14.0,16.0,90,0.00,,,0.01,Wunderground v.1.15,2013-03-24 15:40:00,
2013-03-24 10:45:00,29.2,26.6,29.90,North,10,10.0,15.0,90,0.00,,,0.01,Wunderground v.1.15,2013-03-24 15:45:00,
2013-03-24 10:50:00,29.2,26.4,29.90,North,9,13.0,16.0,89,0.00,,,0.01,Wunderground v.1.15,2013-03-24 15:50:00,
2013-03-24 10:55:00,29.3,26.7,29.90,North,5,12.0,15.0,90,0.00,,,0.01,Wunderground v.1.15,2013-03-24 15:55:00,
2013-03-24 11:00:00,29.4,26.6,29.90,North,10,10.0,12.0,89,0.00,,,0.01,Wunderground v.1.15,2013-03-24 16:00:00,
2013-03-24 11:05:00,29.4,26.8,29.90,North,9,12.0,17.0,90,0.00,,,0.01,Wunderground v.1.15,2013-03-24 16:05:00,
2013-03-24 11:10:00,29.4,26.8,29.90,North,360,16.0,17.0,90,0.00,,,0.01,Wunderground v.1.15,2013-03-24 16:10:00,
2013-03-24 11:15:00,29.2,26.9,29.90,North,360,14.0,18.0,91,0.00,,,0.01,Wunderground v.1.15,2013-03-24 16:15:00,
2013-03-24 11:20:00,29.2,26.9,29.90,NNE,13,15.0,18.0,91,0.00,,,0.01,Wunderground v.1.15,2013-03-24 16:20:00,
2013-03-24 11:25:00,29.1,27.1,29.90,North,9,14.0,15.0,92,0.00,,,0.01,Wunderground v.1.15,2013-03-24 16:25:00,
2013-03-24 11:30:00,29.1,27.3,29.90,North,360,13.0,16.0,93,0.00,,,0.01,Wunderground v.1.15,2013-03-24 16:30:00,
2013-03-24 11:35:00,29.0,27.2,29.90,North,5,12.0,16.0,93,0.00,,,0.01,Wunderground v.1.15,2013-03-24 16:35:00,
2013-03-24 11:40:00,29.0,27.5,29.90,North,5,14.0,16.0,94,0.00,,,0.01,Wunderground v.1.15,2013-03-24 16:40:00,
2013-03-24 11:45:00,29.0,27.5,29.90,North,5,14.0,16.0,94,0.00,,,0.01,Wunderground v.1.15,2013-03-24 16:45:00,
2013-03-24 11:50:00,29.1,27.6,29.90,North,9,12.0,16.0,94,0.00,,,0.01,Wunderground v.1.15,2013-03-24 16:50:00,
2013-03-24 11:55:00,29.1,27.6,29.90,North,5,13.0,16.0,94,0.00,,,0.01,Wunderground v.1.15,2013-03-24 16:55:00,
2013-03-24 12:00:00,29.2,27.9,29.90,North,5,14.0,14.0,95,0.00,,,0.01,Wunderground v.1.15,2013-03-24 17:00:00,
2013-03-24 12:05:00,29.2,27.9,29.90,North,5,11.0,13.0,95,0.00,,,0.01,Wunderground v.1.15,2013-03-24 17:05:00,
2013-03-24 12:10:00,29.3,28.0,29.89,North,360,12.0,15.0,95,0.00,,,0.01,Wunderground v.1.15,2013-03-24 17:10:00,
2013-03-24 12:15:00,29.3,28.0,29.89,North,5,14.0,15.0,95,0.00,,,0.01,Wunderground v.1.15,2013-03-24 17:15:00,
2013-03-24 12:20:00,29.3,28.0,29.89,North,5,12.0,16.0,95,0.00,,,0.01,Wunderground v.1.15,2013-03-24 17:20:00,
2013-03-24 12:25:00,29.5,28.2,29.89,NNE,12,14.0,15.0,95,0.00,,,0.01,Wunderground v.1.15,2013-03-24 17:25:00,
2013-03-24 12:30:00,29.5,28.2,29.89,North,360,13.0,15.0,95,0.00,,,0.01,Wunderground v.1.15,2013-03-24 17:30:00,
2013-03-24 12:35:00,29.5,28.2,29.89,North,11,14.0,16.0,95,0.00,,,0.01,Wunderground v.1.15,2013-03-24 17:35:00,
2013-03-24 12:40:00,29.6,28.3,29.89,North,5,12.0,16.0,95,0.00,,,0.01,Wunderground v.1.15,2013-03-24 17:40:00,
2013-03-24 12:45:00,29.6,28.3,29.89,North,11,14.0,15.0,95,0.00,,,0.01,Wunderground v.1.15,2013-03-24 17:45:00,
2013-03-24 12:50:00,29.6,28.3,29.89,NNE,13,12.0,15.0,95,0.00,,,0.01,Wunderground v.1.15,2013-03-24 17:50:00,
2013-03-24 12:55:00,29.7,28.4,29.88,North,5,13.0,14.0,95,0.00,,,0.01,Wunderground v.1.15,2013-03-24 17:55:00,
2013-03-24 13:00:00,29.7,28.4,29.88,North,10,12.0,14.0,95,0.00,,,0.01,Wunderground v.1.15,2013-03-24 18:00:00,
2013-03-24 13:05:00,29.8,28.8,29.88,North,360,12.0,15.0,96,0.00,,,0.01,Wunderground v.1.15,2013-03-24 18:05:00,
2013-03-24 13:10:00,29.9,28.9,29.88,North,5,11.0,14.0,96,0.00,,,0.01,Wunderground v.1.15,2013-03-24 18:10:00,
2013-03-24 13:15:00,29.9,28.9,29.88,North,5,14.0,17.0,96,0.00,,,0.01,Wunderground v.1.15,2013-03-24 18:15:00,
2013-03-24 13:20:00,29.9,28.9,29.87,NNE,13,14.0,17.0,96,0.00,,,0.01,Wunderground v.1.15,2013-03-24 18:20:00,
2013-03-24 13:25:00,29.9,28.9,29.87,North,5,15.0,16.0,96,0.00,,,0.01,Wunderground v.1.15,2013-03-24 18:25:00,
2013-03-24 13:30:00,29.9,28.9,29.87,North,5,12.0,16.0,96,0.00,,,0.01,Wunderground v.1.15,2013-03-24 18:30:00,
2013-03-24 13:35:00,30.0,29.0,29.87,NNE,13,13.0,16.0,96,0.00,,,0.01,Wunderground v.1.15,2013-03-24 18:35:00,
2013-03-24 13:40:00,29.9,28.6,29.86,North,5,15.0,17.0,95,0.00,,,0.01,Wunderground v.1.15,2013-03-24 18:40:00,
2013-03-24 13:45:00,29.9,28.9,29.86,North,5,16.0,17.0,96,0.00,,,0.01,Wunderground v.1.15,2013-03-24 18:45:00,
2013-03-24 13:50:00,29.9,28.6,29.86,North,9,15.0,18.0,95,0.00,,,0.01,Wunderground v.1.15,2013-03-24 18:50:00,
2013-03-24 13:55:00,29.9,28.9,29.86,North,9,16.0,16.0,96,0.00,,,0.01,Wunderground v.1.15,2013-03-24 18:55:00,
2013-03-24 14:00:00,30.0,29.0,29.85,North,5,16.0,17.0,96,0.00,,,0.01,Wunderground v.1.15,2013-03-24 19:00:00,
2013-03-24 14:10:00,30.1,28.8,29.85,North,9,14.0,19.0,95,0.00,,,0.01,Wunderground v.1.15,2013-03-24 19:10:00,
2013-03-24 14:15:00,30.1,28.8,29.85,North,5,13.0,18.0,95,0.00,,,0.01,Wunderground v.1.15,2013-03-24 19:15:00,
2013-03-24 14:20:00,30.3,29.3,29.85,North,5,15.0,18.0,96,0.00,,,0.01,Wunderground v.1.15,2013-03-24 19:20:00,
2013-03-24 14:25:00,30.2,28.9,29.85,North,10,17.0,18.0,95,0.00,,,0.01,Wunderground v.1.15,2013-03-24 19:25:00,
2013-03-24 14:30:00,30.2,29.2,29.84,North,9,17.0,18.0,96,0.00,,,0.01,Wunderground v.1.15,2013-03-24 19:30:00,
2013-03-24 14:35:00,30.2,28.9,29.84,North,5,15.0,17.0,95,0.00,,,0.01,Wunderground v.1.15,2013-03-24 19:35:00,
2013-03-24 14:40:00,30.3,29.3,29.84,North,5,16.0,17.0,96,0.00,,,0.01,Wunderground v.1.15,2013-03-24 19:40:00,
2013-03-24 14:45:00,30.3,29.3,29.84,North,5,14.0,18.0,96,0.00,,,0.01,Wunderground v.1.15,2013-03-24 19:45:00,
2013-03-24 14:50:00,30.3,29.3,29.84,North,5,15.0,18.0,96,0.00,,,0.01,Wunderground v.1.15,2013-03-24 19:50:00,
2013-03-24 15:02:00,30.5,29.5,29.84,North,360,16.0,16.0,96,0.00,,,0.01,Wunderground v.1.15,2013-03-24 20:02:00,
2013-03-24 15:07:00,30.6,29.6,29.84,North,360,16.0,16.0,96,0.00,,,0.01,Wunderground v.1.15,2013-03-24 20:07:00,
2013-03-24 15:20:00,30.6,29.3,29.83,North,5,16.0,18.0,95,0.00,,,0.01,Wunderground v.1.15,2013-03-24 20:20:00,
2013-03-24 15:32:00,30.7,29.7,29.84,North,355,13.0,14.0,96,0.00,,,0.01,Wunderground v.1.15,2013-03-24 20:32:00,
2013-03-24 15:37:00,30.8,29.8,29.83,North,355,14.0,17.0,96,0.00,,,0.01,Wunderground v.1.15,2013-03-24 20:37:00,
2013-03-24 15:42:00,30.8,29.8,29.84,North,360,13.0,14.0,96,0.00,,,0.01,Wunderground v.1.15,2013-03-24 20:42:00,
2013-03-24 15:48:00,30.8,29.8,29.84,North,355,14.0,16.0,96,0.00,,,0.01,Wunderground v.1.15,2013-03-24 20:48:00,
2013-03-24 16:00:00,30.9,29.9,29.84,North,5,11.0,17.0,96,0.00,,,0.01,Wunderground v.1.15,2013-03-24 21:00:00,
2013-03-24 16:06:00,30.8,29.8,29.84,North,5,13.0,17.0,96,0.00,,,0.01,Wunderground v.1.15,2013-03-24 21:06:00,
2013-03-24 16:11:00,30.7,29.4,29.84,North,5,13.0,16.0,95,0.00,,,0.01,Wunderground v.1.15,2013-03-24 21:11:00,
2013-03-24 16:16:00,30.8,29.5,29.84,North,5,11.0,14.0,95,0.00,,,0.01,Wunderground v.1.15,2013-03-24 21:16:00,
2013-03-24 16:22:00,30.8,29.5,29.84,North,360,12.0,12.0,95,0.00,,,0.01,Wunderground v.1.15,2013-03-24 21:22:00,
2013-03-24 16:27:00,30.8,29.5,29.84,North,5,12.0,16.0,95,0.00,,,0.01,Wunderground v.1.15,2013-03-24 21:27:00,
2013-03-24 16:41:00,30.6,29.3,29.84,North,360,14.0,17.0,95,0.00,,,0.01,Wunderground v.1.15,2013-03-24 21:41:00,
2013-03-24 16:52:00,30.6,29.6,29.84,North,360,14.0,14.0,96,0.00,,,0.01,Wunderground v.1.15,2013-03-24 21:52:00,
2013-03-24 16:57:00,30.6,29.6,29.85,North,360,11.0,15.0,96,0.00,,,0.01,Wunderground v.1.15,2013-03-24 21:57:00,
2013-03-24 17:02:00,30.7,29.7,29.85,North,5,13.0,13.0,96,0.00,,,0.01,Wunderground v.1.15,2013-03-24 22:02:00,
2013-03-24 17:08:00,30.8,29.8,29.85,North,355,13.0,16.0,96,0.00,,,0.01,Wunderground v.1.15,2013-03-24 22:08:00,
2013-03-24 17:20:00,30.6,29.6,29.85,North,360,15.0,16.0,96,0.00,,,0.01,Wunderground v.1.15,2013-03-24 22:20:00,
2013-03-24 17:31:00,30.4,29.4,29.86,North,360,11.0,16.0,96,0.00,,,0.01,Wunderground v.1.15,2013-03-24 22:31:00,
2013-03-24 17:42:00,30.3,29.3,29.87,North,360,14.0,14.0,96,0.00,,,0.01,Wunderground v.1.15,2013-03-24 22:42:00,
2013-03-24 17:47:00,30.3,29.3,29.87,North,9,14.0,17.0,96,0.00,,,0.01,Wunderground v.1.15,2013-03-24 22:47:00,
2013-03-24 18:02:00,30.1,29.1,29.87,North,355,12.0,12.0,96,0.00,,,0.01,Wunderground v.1.15,2013-03-24 23:02:00,
2013-03-24 18:07:00,30.1,29.1,29.88,North,360,11.0,14.0,96,0.00,,,0.01,Wunderground v.1.15,2013-03-24 23:07:00,
2013-03-24 18:19:00,30.0,29.0,29.88,North,355,12.0,16.0,96,0.00,,,0.01,Wunderground v.1.15,2013-03-24 23:19:00,
2013-03-24 18:24:00,30.0,29.0,29.88,North,355,11.0,15.0,96,0.00,,,0.01,Wunderground v.1.15,2013-03-24 23:24:00,
2013-03-24 18:29:00,30.0,29.0,29.88,NNW,348,13.0,16.0,96,0.00,,,0.01,Wunderground v.1.15,2013-03-24 23:29:00,
2013-03-24 18:42:00,29.9,28.9,29.89,North,355,10.0,14.0,96,0.00,,,0.01,Wunderground v.1.15,2013-03-24 23:42:00,
2013-03-24 18:47:00,30.0,29.0,29.89,North,5,13.0,14.0,96,0.00,,,0.01,Wunderground v.1.15,2013-03-24 23:47:00,
2013-03-24 18:52:00,29.9,28.9,29.89,North,9,13.0,14.0,96,0.00,,,0.01,Wunderground v.1.15,2013-03-24 23:52:00,
2013-03-24 18:57:00,29.9,28.9,29.89,North,360,14.0,16.0,96,0.00,,,0.01,Wunderground v.1.15,2013-03-24 23:57:00,
2013-03-24 19:02:00,29.8,28.8,29.90,North,355,14.0,14.0,96,0.00,,,0.01,Wunderground v.1.15,2013-03-25 00:02:00,
2013-03-24 19:07:00,29.7,28.7,29.90,North,5,15.0,17.0,96,0.00,,,0.01,Wunderground v.1.15,2013-03-25 00:07:00,
2013-03-24 19:12:00,29.6,28.6,29.90,North,360,13.0,14.0,96,0.00,,,0.01,Wunderground v.1.15,2013-03-25 00:12:00,
2013-03-24 19:17:00,29.6,28.6,29.90,North,355,16.0,16.0,96,0.00,,,0.01,Wunderground v.1.15,2013-03-25 00:17:00,
2013-03-24 19:22:00,29.6,28.9,29.90,North,355,10.0,13.0,97,0.00,,,0.01,Wunderground v.1.15,2013-03-25 00:22:00,
2013-03-24 19:27:00,29.7,29.0,29.90,North,355,10.0,14.0,97,0.00,,,0.01,Wunderground v.1.15,2013-03-25 00:27:00,
2013-03-24 19:32:00,29.7,29.0,29.90,North,355,11.0,14.0,97,0.00,,,0.01,Wunderground v.1.15,2013-03-25 00:32:00,
2013-03-24 19:38:00,29.7,29.0,29.90,North,355,12.0,17.0,97,0.00,,,0.01,Wunderground v.1.15,2013-03-25 00:38:00,
2013-03-24 19:43:00,29.7,29.0,29.90,North,355,11.0,13.0,97,0.00,,,0.01,Wunderground v.1.15,2013-03-25 00:43:00,
2013-03-24 19:48:00,29.7,29.0,29.90,NNW,347,13.0,15.0,97,0.00,,,0.01,Wunderground v.1.15,2013-03-25 00:48:00,
2013-03-24 20:00:00,29.6,28.9,29.91,North,350,11.0,13.0,97,0.00,,,0.01,Wunderground v.1.15,2013-03-25 01:00:00,
2013-03-24 20:12:00,29.6,28.9,29.91,North,360,15.0,15.0,97,0.00,,,0.01,Wunderground v.1.15,2013-03-25 01:12:00,
2013-03-24 20:17:00,29.4,28.7,29.91,North,360,13.0,16.0,97,0.00,,,0.01,Wunderground v.1.15,2013-03-25 01:17:00,
2013-03-24 20:22:00,29.4,28.7,29.91,North,355,13.0,13.0,97,0.00,,,0.01,Wunderground v.1.15,2013-03-25 01:22:00,
2013-03-24 20:27:00,29.4,28.7,29.91,North,350,14.0,14.0,97,0.00,,,0.01,Wunderground v.1.15,2013-03-25 01:27:00,
2013-03-24 20:32:00,29.3,28.6,29.91,North,355,13.0,13.0,97,0.00,,,0.01,Wunderground v.1.15,2013-03-25 01:32:00,
2013-03-24 20:37:00,29.3,28.6,29.91,North,355,12.0,16.0,97,0.00,,,0.01,Wunderground v.1.15,2013-03-25 01:37:00,
2013-03-24 20:50:00,29.3,28.6,29.91,North,355,13.0,14.0,97,0.00,,,0.01,Wunderground v.1.15,2013-03-25 01:50:00,
2013-03-24 20:55:00,29.3,28.6,29.91,North,355,11.0,14.0,97,0.00,,,0.01,Wunderground v.1.15,2013-03-25 01:55:00,
2013-03-24 21:00:00,29.4,28.7,29.91,North,355,13.0,14.0,97,0.00,,,0.01,Wunderground v.1.15,2013-03-25 02:00:00,
2013-03-24 21:05:00,29.4,28.7,29.91,North,349,12.0,12.0,97,0.00,,,0.01,Wunderground v.1.15,2013-03-25 02:05:00,
2013-03-24 21:10:00,29.5,28.8,29.91,NNW,346,11.0,11.0,97,0.00,,,0.01,Wunderground v.1.15,2013-03-25 02:10:00,
2013-03-24 21:15:00,29.5,28.8,29.91,NNW,346,13.0,16.0,97,0.00,,,0.01,Wunderground v.1.15,2013-03-25 02:15:00,
2013-03-24 21:20:00,29.5,28.8,29.91,North,355,14.0,16.0,97,0.00,,,0.01,Wunderground v.1.15,2013-03-25 02:20:00,
2013-03-24 21:25:00,29.5,28.8,29.91,North,355,12.0,16.0,97,0.00,,,0.01,Wunderground v.1.15,2013-03-25 02:25:00,
2013-03-24 21:30:00,29.5,28.8,29.91,North,355,11.0,16.0,97,0.00,,,0.01,Wunderground v.1.15,2013-03-25 02:30:00,
2013-03-24 21:35:00,29.4,28.7,29.91,North,350,12.0,15.0,97,0.00,,,0.01,Wunderground v.1.15,2013-03-25 02:35:00,
2013-03-24 21:40:00,29.3,28.6,29.91,North,350,14.0,16.0,97,0.00,,,0.01,Wunderground v.1.15,2013-03-25 02:40:00,
2013-03-24 21:45:00,29.4,28.7,29.92,North,355,14.0,16.0,97,0.00,,,0.01,Wunderground v.1.15,2013-03-25 02:45:00,
2013-03-24 21:50:00,29.4,28.7,29.92,North,355,12.0,16.0,97,0.00,,,0.01,Wunderground v.1.15,2013-03-25 02:50:00,
2013-03-24 21:55:00,29.4,28.7,29.92,North,355,15.0,16.0,97,0.00,,,0.01,Wunderground v.1.15,2013-03-25 02:55:00,
2013-03-24 22:02:00,29.4,28.7,29.92,North,5,16.0,16.0,97,0.00,,,0.01,Wunderground v.1.15,2013-03-25 03:02:00,
2013-03-24 22:07:00,29.4,28.7,29.92,North,10,11.0,16.0,97,0.00,,,0.01,Wunderground v.1.15,2013-03-25 03:07:00,
2013-03-24 22:12:00,29.3,28.6,29.92,North,11,11.0,14.0,97,0.00,,,0.01,Wunderground v.1.15,2013-03-25 03:12:00,
2013-03-24 22:17:00,29.3,28.6,29.92,North,5,12.0,16.0,97,0.00,,,0.01,Wunderground v.1.15,2013-03-25 03:17:00,
2013-03-24 22:22:00,29.3,28.6,29.92,North,10,12.0,12.0,97,0.00,,,0.01,Wunderground v.1.15,2013-03-25 03:22:00,
2013-03-24 22:28:00,29.3,28.6,29.92,North,5,11.0,13.0,97,0.00,,,0.01,Wunderground v.1.15,2013-03-25 03:28:00,
2013-03-24 22:33:00,29.2,28.5,29.92,North,5,11.0,11.0,97,0.00,,,0.01,Wunderground v.1.15,2013-03-25 03:33:00,
2013-03-24 22:38:00,29.2,28.5,29.92,North,360,12.0,14.0,97,0.00,,,0.01,Wunderground v.1.15,2013-03-25 03:38:00,
2013-03-24 22:43:00,29.1,28.4,29.92,North,360,13.0,16.0,97,0.00,,,0.01,Wunderground v.1.15,2013-03-25 03:43:00,
2013-03-24 22:48:00,29.1,28.4,29.92,North,360,11.0,16.0,97,0.00,,,0.01,Wunderground v.1.15,2013-03-25 03:48:00,
2013-03-24 22:53:00,29.1,28.4,29.92,North,360,12.0,12.0,97,0.00,,,0.01,Wunderground v.1.15,2013-03-25 03:53:00,
2013-03-24 22:58:00,29.1,28.4,29.92,North,5,13.0,16.0,97,0.00,,,0.01,Wunderground v.1.15,2013-03-25 03:58:00,
2013-03-24 23:00:00,29.0,28.3,29.92,North,5,14.0,14.0,97,0.00,,,0.01,Wunderground v.1.15,2013-03-25 04:00:00,
2013-03-24 23:05:00,28.7,28.0,29.92,North,5,12.0,16.0,97,0.00,,,0.01,Wunderground v.1.15,2013-03-25 04:05:00,
2013-03-24 23:10:00,28.6,27.6,29.92,North,9,12.0,16.0,96,0.00,,,0.01,Wunderground v.1.15,2013-03-25 04:10:00,
2013-03-24 23:16:00,28.5,27.5,29.92,North,11,12.0,15.0,96,0.00,,,0.01,Wunderground v.1.15,2013-03-25 04:16:00,
2013-03-24 23:22:00,28.5,27.5,29.92,North,5,10.0,13.0,96,0.00,,,0.01,Wunderground v.1.15,2013-03-25 04:22:00,
2013-03-24 23:27:00,28.5,27.5,29.92,North,360,9.0,13.0,96,0.00,,,0.01,Wunderground v.1.15,2013-03-25 04:27:00,
2013-03-24 23:32:00,28.5,27.5,29.92,North,350,9.0,10.0,96,0.00,,,0.01,Wunderground v.1.15,2013-03-25 04:32:00,
2013-03-24 23:37:00,28.7,28.0,29.92,North,350,12.0,13.0,97,0.00,,,0.01,Wunderground v.1.15,2013-03-25 04:37:00,
2013-03-24 23:42:00,28.7,28.0,29.92,NNW,344,11.0,11.0,97,0.00,,,0.01,Wunderground v.1.15,2013-03-25 04:42:00,
2013-03-24 23:47:00,28.7,28.0,29.92,North,355,13.0,15.0,97,0.00,,,0.01,Wunderground v.1.15,2013-03-25 04:47:00,
2013-03-24 23:52:00,28.5,27.5,29.92,NNW,348,12.0,13.0,96,0.00,,,0.01,Wunderground v.1.15,2013-03-25 04:52:00,